Voltar ao catálogo

FENGYUN 1C DEB

AtivoSSO
NORAD 32160·DEBRIS·🇨🇳 China

Lançado May 10, 1999 de Taiyuan Satellite Launch Center

Loading…

Próximas Passagens (próximas 24 horas)

TLE

AtualizadoSource: Space-Track

Época: Sep 14, 2026, 05:13 UTC

1 32160U 99025CTE 26257.21795394  .00000803  00000-0  26967-3 0  9993
2 32160  98.9102  69.1165 0080231 265.3706  93.8313 14.38340606998462

Acompanhe FENGYUN 1C DEB em tempo real com AllMySat

Download on the App Store